Location: Poughquag
(41.6090°N, 73.6820°W)
Time: 07:41:08
(UTC-05:00)

STRAND 1 - Pass Details

Date: 02 December 2023
Orbit: 766 x 778 km, 98.4° (Epoch: 24 February)

Event Time Altitude Azimuth Distance (km) Brightness Sun altitude
Rises 04:16:40 0° 122° (ESE) 3,239 ? -30.4°
Reaches altitude 10° 04:19:38 10° 104° (ESE) 2,314 ? -29.8°
Maximum altitude 04:23:00 18° 62° (ENE) 1,817 ? -29.2°
Drops below altitude 10° 04:26:23 10° 21° (NNE) 2,319 ? -28.6°
Sets 04:29:21 0° 3° (N) 3,248 ? -28.0°
